This demonstration page uses our WeatherBlox Daily Observations layout. Learn more.

Left ArrowRight Arrow

Hourly Observations for January 8, 2022

Temp ( °F °C ) Dew Point ( °F °C ) Humidity (%) Winds ( mph kmh ) Pressure ( in mb ) Visibility ( mi km ) Precip ( " mm )
12:53 am 00:53 Clear 37 2.8 17 -8.3 44 44 ENE 6 9 29.89 1012 10 16 0.00 0.00
1:53 am 01:53 Clear 39 3.9 21 -6.1 48 48 SE 14 22 29.85 1011 10 16 0.00 0.00
2:53 am 02:53 Clear 37 2.8 23 -5 57 57 SE 10 17 29.85 1011 10 16 0.00 0.00
3:53 am 03:53 Clear 36 2.2 23 -5 59 59 ESE 5 7 29.85 1011 10 16 0.00 0.00
4:53 am 04:53 Clear 33 0.6 23 -5 66 66 ESE 6 9 29.85 1011 10 16 0.00 0.00
5:53 am 05:53 Clear 28 -2.2 18 -7.8 66 66 E 3 6 29.88 1012 10 16 0.00 0.00
6:53 am 06:53 Clear 25 -3.9 17 -8.3 72 72 E 3 6 29.91 1013 10 16 0.00 0.00
7:53 am 07:53 Clear 27 -2.8 18 -7.8 69 69 Calm 29.93 1013 10 16 0.00 0.00
8:53 am 08:53 Sunny 34 1.1 25 -3.9 70 70 SSE 6 9 29.93 1014 10 16 0.00 0.00
9:53 am 09:53 Sunny 43 6.1 26 -3.3 51 51 S 5 7 29.92 1013 10 16 0.00 0.00
10:53 am 10:53 Sunny 55 12.8 23 -5 29 29 SW 9 15 29.91 1013 10 16 0.00 0.00
11:53 am 11:53 Sunny 65 18.3 23 -5 20 20 WSW 10 17 29.88 1012 10 16 0.00 0.00
12:53 pm 12:53 Sunny 69 20.6 23 -5 17 17 SW 10 17 29.84 1011 10 16 0.00 0.00
1:53 pm 13:53 Sunny 75 23.9 21 -6.1 13 13 W 25 41 29.80 1009 10 16 0.00 0.00
2:53 pm 14:53 Sunny 76 24.4 20 -6.7 12 12 W 25 41 29.79 1009 10 16 0.00 0.00
3:53 pm 15:53 Sunny 75 23.9 23 -5 14 14 WSW 23 37 29.80 1009 10 16 0.00 0.00
4:53 pm 16:53 Sunny 74 23.3 21 -6.1 14 14 W 21 33 29.82 1010 10 16 0.00 0.00
5:53 pm 17:53 Sunny 70 21.1 22 -5.6 16 16 W 20 31 29.85 1011 10 16 0.00 0.00
6:53 pm 18:53 Clear 65 18.3 22 -5.6 19 19 WSW 14 22 29.90 1013 10 16 0.00 0.00
7:53 pm 19:53 Clear 61 16.1 23 -5 23 23 W 13 20 29.93 1014 10 16 0.00 0.00
8:53 pm 20:53 Clear 60 15.6 24 -4.4 25 25 W 9 15 29.94 1014 10 16 0.00 0.00
9:53 pm 21:53 Clear 56 13.3 25 -3.9 30 30 WSW 9 15 29.96 1015 10 16 0.00 0.00
10:53 pm 22:53 Clear 54 12.2 25 -3.9 33 33 W 12 19 29.96 1015 10 16 0.00 0.00
11:53 pm 23:53 Clear 56 13.3 25 -3.9 30 30 WSW 10 17 29.96 1015 10 16 0.00 0.00

Powered by AerisWeather